Yuma MCAS, AZ

6:04 AM MST on March 26, 2017 (GMT -0700)
Yuma Marine Corps Air Station

Weather History for KNYL - December, 2012

Change the Weather History Date:

Thursday, December 20, 2012

  Actual Average Record
Temperature  
Mean Temperature 50 °F 57 °F  
Max Temperature 60 °F 67 °F 83 °F (1981)
Min Temperature 39 °F 46 °F 27 °F (1909)
Degree Days  
Heating Degree Days 15 8  
Month to date heating degree days 89 144  
Since 1 July heating degree days 111 212  
Cooling Degree Days 0 0  
Month to date cooling degree days 19 0  
Year to date cooling degree days 4933 4649  
Moisture  
Dew Point 21 °F    
Average Humidity 35    
Maximum Humidity 50    
Minimum Humidity 20    
Precipitation  
Precipitation 0.00 in 0.02 in 0.26 in (1952)
Month to date precipitation 0.60 0.32  
Year to date precipitation 2.97 3.37  
Sea Level Pressure  
Sea Level Pressure 30.26 in    
Wind  
Wind Speed 9 mph (North)    
Max Wind Speed 17 mph    
Max Gust Speed 21 mph    
Visibility 10 miles    
Events      
T = Trace of Precipitation, MM = Missing Value Source: NWS Daily Summary

Daily Weather History Graph

Daily Weather History Graph

Search for Another Location

Airport or City:

Trip Planner

Search our weather history database for the weather conditions in past years. The results will help you decide how hot, cold, wet, or windy it might be!

Date:

Astronomy

Dec. 20, 2012 Rise Set
Actual Time 7:36 AM MST 5:36 PM MST
Civil Twilight 7:09 AM MST 6:03 PM MST
Nautical Twilight 6:38 AM MST 6:34 PM MST
Astronomical Twilight 6:08 AM MST 7:04 PM MST
Moon 12:41 PM MST (12/20) 12:44 AM MST (12/20)
Length of Visible Light 10h 54m
Length of Day
10h 00m
First Quarter, 56% of the Moon is Illuminated
Dec 20
First Quarter
Dec 28
Full
Jan 4
Last Quarter
Jan 11
New
Jan 18
First Quarter

Hourly Weather History & Observations

Time (MST) Temp. Windchill Dew Point Humidity Pressure Visibility Wind Dir Wind Speed Gust Speed Precip Events Conditions
12:55 AM 46.9 °F - 17.1 °F 30% 30.34 in 10.0 mi North 8.1 mph - N/A   Clear
1:55 AM 46.0 °F 41.4 °F 17.1 °F 31% 30.33 in 10.0 mi North 9.2 mph - N/A   Clear
2:55 AM 46.0 °F 40.6 °F 17.1 °F 31% 30.33 in 10.0 mi North 11.5 mph - N/A   Clear
3:55 AM 45.0 °F 40.1 °F 18.0 °F 34% 30.32 in 10.0 mi North 9.2 mph - N/A   Clear
4:55 AM 45.0 °F 40.6 °F 18.0 °F 34% 30.32 in 10.0 mi NNE 8.1 mph - N/A   Clear
5:55 AM 42.1 °F 38.4 °F 21.0 °F 43% 30.32 in 10.0 mi NNE 5.8 mph - N/A   Clear
6:55 AM 41.0 °F 37.1 °F 21.9 °F 47% 30.33 in 10.0 mi NNE 5.8 mph - N/A   Partly Cloudy
7:55 AM 39.9 °F 36.7 °F 23.0 °F 51% 30.34 in 10.0 mi NE 4.6 mph - N/A   Partly Cloudy
8:55 AM 44.1 °F 40.1 °F 23.0 °F 43% 30.35 in 10.0 mi NNE 6.9 mph - N/A   Scattered Clouds
9:55 AM 48.9 °F - 24.1 °F 38% 30.36 in 10.0 mi North 9.2 mph - N/A   Scattered Clouds
10:55 AM 53.1 °F - 19.9 °F 27% 30.35 in 10.0 mi NNE 10.4 mph - N/A   Scattered Clouds
11:55 AM 55.0 °F - 19.9 °F 25% 30.31 in 10.0 mi North 9.2 mph 17.3 mph N/A   Scattered Clouds
12:55 PM 57.9 °F - 19.9 °F 23% 30.26 in 10.0 mi North 9.2 mph - N/A   Mostly Cloudy
1:55 PM 59.0 °F - 19.9 °F 22% 30.22 in 10.0 mi North 12.7 mph - N/A   Mostly Cloudy
2:55 PM 60.1 °F - 19.9 °F 21% 30.20 in 10.0 mi North 12.7 mph - N/A   Mostly Cloudy
3:55 PM 59.0 °F - 21.0 °F 23% 30.19 in 10.0 mi North 11.5 mph - N/A   Mostly Cloudy
4:55 PM 55.9 °F - 21.0 °F 26% 30.18 in 10.0 mi North 11.5 mph - N/A   Mostly Cloudy
5:55 PM 54.0 °F - 21.0 °F 28% 30.16 in 10.0 mi North 10.4 mph - N/A   Mostly Cloudy
6:55 PM 53.1 °F - 23.0 °F 31% 30.17 in 10.0 mi North 11.5 mph - N/A   Mostly Cloudy
7:55 PM 53.1 °F - 21.9 °F 30% 30.17 in 10.0 mi North 10.4 mph - N/A   Mostly Cloudy
8:55 PM 52.0 °F - 23.0 °F 32% 30.17 in 10.0 mi North 9.2 mph - N/A   Mostly Cloudy
9:55 PM 51.1 °F - 23.0 °F 33% 30.17 in 10.0 mi North 6.9 mph - N/A   Mostly Cloudy
10:55 PM 50.0 °F - 21.9 °F 33% 30.17 in 10.0 mi NNW 6.9 mph - N/A   Scattered Clouds
11:55 PM 50.0 °F - 21.9 °F 33% 30.16 in 10.0 mi North 6.9 mph - N/A   Scattered Clouds